Regional Weather Roundup
Issued by NWS Sioux Falls, SD

Home | Current Version | Previous Version | Text Only | Print | Product List | Glossary On
Versions: 1 2 3 4 5 6 7 8 9 10 11 12 13 14 15 16 17 18 19 20 21 22 23 24 25 26 27 28 29 30 31 32 33 34 35 36 37 38 39 40 41 42 43 44 45 46 47 48 49 50
547
ASUS43 KFSD 181002
RWRFSD

WEATHER ROUNDUP FOR SE SOUTH DAKOTA/SW MINNESOTA/NW IOWA
NATIONAL WEATHER SERVICE SIOUX FALLS SD
400 AM CST THU JAN 18 2018

NOTE: "FAIR" INDICATES FEW OR NO CLOUDS BELOW 12,000 FEET WITH NO
SIGNIFICANT WEATHER AND OR OBSTRUCTIONS TO VISIBILITY.


SDZ038>040-050-052>070-181100-
SOUTHEAST SOUTH DAKOTA

CITY           SKY/WX    TMP DP  RH WIND       PRES   REMARKS
BROOKINGS      CLOUDY    17  14  88 CALM      30.00F
CHAMBERLAIN    PTCLDY    30  24  77 SW5       30.00S WCI  25
HURON          MOCLDY    19  16  88 S5        29.98F WCI  12
MADISON        FAIR      19  19 100 SW10      29.99F WCI   8
MITCHELL       PTCLDY    17  14  88 E8        30.01F WCI   7
SIOUX FALLS    CLOUDY    16  14  92 SW3       30.03F
WINNER         FAIR      32  22  66 SW16      29.98F WCI  21
YANKTON        CLOUDY    19  15  84 SE5       30.05F WCI  12
$$

MNZ071-072-080-081-089-090-097-098-181100-
SOUTHWEST MINNESOTA

CITY           SKY/WX    TMP DP  RH WIND       PRES   REMARKS
FAIRMONT       CLOUDY    24  18  77 W17       30.01F WCI  11
JACKSON        CLOUDY    23  18  80 SW14      30.01F WCI  11
LUVERNE        CLOUDY    16  12  86 CALM      30.03F
MARSHALL       CLOUDY    30  22  72 W18       29.95F WCI  18
MONTEVIDEO     CLOUDY    28  21  74 W9        29.92F WCI  20
PIPESTONE      CLOUDY    16  12  86 SW5       30.01S WCI   9
REDWOOD FALLS  CLOUDY    22  17  81 SW9       29.96F WCI  12
WINDOM         CLOUDY    23   9  54 SW13      30.00F WCI  11
WORTHINGTON    CLOUDY    19  15  84 SW14      30.02F WCI   6
$$

IAZ001>003-012>014-020>022-031-032-NEZ013-014-SDZ071-181100-
NORTHWEST IOWA

CITY           SKY/WX    TMP DP  RH WIND       PRES   REMARKS
CHEROKEE       CLOUDY    15  12  87 SW5       30.09F WCI   8
DENISON        CLOUDY    18  12  79 S8        30.15F WCI   7
ESTHERVILLE    CLOUDY    19  15  84 SW14      30.03F WCI   6
LE MARS        CLOUDY    16  12  86 S7        30.09F WCI   6
ORANGE CITY    CLOUDY    18  16  93 SW9       30.07S WCI   6
SHELDON        CLOUDY    18  14  86 S7        30.04F WCI   8
SIOUX CITY     CLOUDY    11   8  88 E9        30.10F WCI  -2
SPENCER        CLOUDY    18  12  77 SW7       30.06F WCI   9
STORM LAKE     CLOUDY    19  14  79 SW15      30.07F WCI   5
$$

ABBREVIATIONS USED IN REMARKS
   TC - TEMPERATURE IN CELSIUS
  WCI - WIND CHILL INDEX
   HX - HEAT INDEX
  VSB - VISIBILITY





USA.gov is the U.S. government's official web portal to all federal, state and local government web resources and services.